GW0720 Weather Reports


Display with metric or nautical units.
time (UTC)temp
F
wind
direction
speed
MPH
gust
MPH
rain 1hr
in
rain 24hr
in
rain mn
in
humidity
%
barometer
mb
20260510221551 83 0 0.0 5.0 0.00 0.00 0.00 39 1013.3
20260510220110 83 28 1.0 4.0 0.00 0.00 0.00 34 1013.5
20260510214554 83 252 1.0 6.0 0.00 0.00 0.00 34 1013.6
20260510213053 84 0 2.0 4.0 0.00 0.00 0.00 35 1013.4
20260510211554 84 0 1.0 5.0 0.00 0.00 0.00 34 1013.5
20260510210056 84 86 1.0 6.0 0.00 0.00 0.00 36 1013.4
20260510204601 85 273 0.0 6.0 0.00 0.00 0.00 34 1013.5
20260510203056 84 0 0.0 6.0 0.00 0.00 0.00 38 1013.5
20260510201554 85 55 1.0 9.0 0.00 0.00 0.00 33 1013.5
20260510200054 85 5 0.0 5.0 0.00 0.00 0.00 35 1013.9
20260510194604 84 11 2.0 6.0 0.00 0.00 0.00 34 1013.9
20260510193055 84 0 1.0 6.0 0.00 0.00 0.00 34 1014.2
20260510191608 84 280 1.0 5.0 0.00 0.00 0.00 35 1014.2
20260510190059 85 0 0.0 5.0 0.00 0.00 0.00 36 1014.4
20260510184551 85 0 0.0 7.0 0.00 0.00 0.00 40 1014.6
20260510183052 84 37 2.0 7.0 0.00 0.00 0.00 36 1014.5
20260510181623 84 31 2.0 7.0 0.00 0.00 0.00 37 1014.6
20260510181552 84 31 2.0 7.0 0.00 0.00 0.00 37 1014.6
20260510180109 84 0 2.0 6.0 0.00 0.00 0.00 35 1014.7
20260510174552 83 44 0.0 8.0 0.00 0.00 0.00 39 1015.0
20260510173054 82 0 2.0 7.0 0.00 0.00 0.00 36 1015.1
20260510171558 82 304 0.0 7.0 0.00 0.00 0.00 36 1015.1
20260510170051 83 0 0.0 7.0 0.00 0.00 0.00 44 1015.2
20260510164558 83 0 0.0 6.0 0.00 0.00 0.00 37 1015.1
20260510163116 81 265 2.0 4.0 0.00 0.00 0.00 38 1015.3
20260510161601 80 77 1.0 6.0 0.00 0.00 0.00 39 1015.3
20260510154555 79 22 0.0 6.0 0.00 0.00 0.00 49 1015.5
20260510153056 79 72 1.0 5.0 0.00 0.00 0.00 47 1015.4
20260510151552 78 90 1.0 4.0 0.00 0.00 0.00 49 1015.7
20260510150106 78 78 1.0 4.0 0.00 0.00 0.00 51 1015.8
20260510144610 78 47 0.0 2.0 0.00 0.00 0.00 57 1015.8
20260510143106 76 0 0.0 3.0 0.00 0.00 0.00 56 1015.7
20260510141557 75 0 0.0 4.0 0.00 0.00 0.00 51 1015.4
20260510140053 73 0 0.0 4.0 0.00 0.00 0.00 55 1015.4
20260510134600 71 247 1.0 4.0 0.00 0.00 0.00 59 1015.2
20260510133059 69 0 0.0 4.0 0.00 0.00 0.00 65 1015.3
20260510131556 66 307 0.0 2.0 0.00 0.00 0.00 79 1015.3
20260510130058 63 0 0.0 2.0 0.00 0.00 0.00 87 1015.0
20260510124557 61 0 0.0 1.0 0.00 0.00 0.00 93 1014.9
20260510123059 59 0 0.0 1.0 0.00 0.00 0.00 97 1014.9
20260510121556 58 0 0.0 1.0 0.00 0.00 0.00 97 1014.5
20260510120053 57 0 0.0 1.0 0.00 0.00 0.00 97 1014.3
20260510114551 55 0 0.0 0.0 0.00 0.00 0.00 97 1013.8
20260510113056 53 0 0.0 0.0 0.00 0.00 0.00 96 1013.7
20260510111557 52 0 0.0 0.0 0.00 0.00 0.00 95 1013.6
20260510110050 52 0 0.0 0.0 0.00 0.00 0.00 95 1013.5
20260510104558 52 0 0.0 0.0 0.00 0.00 0.00 95 1013.3
20260510103058 52 0 0.0 0.0 0.00 0.00 0.00 94 1013.2
20260510101554 52 0 0.0 0.0 0.00 0.00 0.00 94 1013.0
20260510100056 52 0 0.0 0.0 0.00 0.00 0.00 93 1012.8
20260510094552 53 0 0.0 0.0 0.00 0.00 0.00 93 1012.7
20260510093106 53 0 0.0 0.0 0.00 0.00 0.00 93 1012.6
20260510091609 53 0 0.0 0.0 0.00 0.00 0.00 93 1012.4
20260510090052 54 0 0.0 0.0 0.00 0.00 0.00 93 1012.3
20260510084554 54 0 0.0 0.0 0.00 0.00 0.00 92 1012.2
20260510083053 55 0 0.0 0.0 0.00 0.00 0.00 92 1012.2
20260510081621 56 0 0.0 0.0 0.00 0.00 0.00 92 1012.0
20260510080051 56 0 0.0 1.0 0.00 0.00 0.00 91 1012.1
20260510074553 57 0 0.0 0.0 0.00 0.00 0.00 91 1011.8
20260510073101 58 0 0.0 0.0 0.00 0.00 0.00 90 1011.8
20260510071551 58 0 0.0 0.0 0.00 0.00 0.00 90 1011.8
20260510070051 60 0 0.0 0.0 0.00 0.00 0.00 89 1011.8
20260510064559 60 0 0.0 0.0 0.00 0.00 0.00 88 1011.9
20260510063052 62 0 0.0 0.0 0.00 0.00 0.00 87 1011.9
20260510061554 63 0 0.0 1.0 0.00 0.00 0.00 85 1012.0
20260510060057 64 0 0.0 2.0 0.00 0.00 0.00 84 1011.9
20260510054554 64 0 0.0 3.0 0.00 0.00 0.00 84 1012.0
20260510053107 65 0 0.0 4.0 0.00 0.00 0.00 83 1012.0
20260510051604 65 0 0.0 4.0 0.00 0.00 0.00 83 1012.0
20260510050110 65 0 0.0 5.0 0.00 0.00 0.00 83 1011.9
20260510044604 64 0 0.0 3.0 0.00 0.00 0.00 84 1012.0
20260510043057 63 0 0.0 2.0 0.00 0.00 0.00 85 1011.9
20260510041601 62 0 0.0 3.0 0.00 0.00 0.00 87 1011.8
20260510040053 61 0 0.0 1.0 0.00 0.00 0.00 87 1011.7
20260510034551 61 0 0.0 1.0 0.00 0.00 0.00 88 1011.8
20260510033107 60 0 0.0 1.0 0.00 0.00 0.00 88 1011.6
20260510031552 60 0 0.0 1.0 0.00 0.00 0.00 88 1011.5
20260510030111 60 0 0.0 0.0 0.00 0.00 0.00 88 1011.5
20260510020118 60 0 0.0 0.0 0.00 0.00 0.00 87 1011.0
20260510014601 61 0 0.0 0.0 0.00 0.00 0.00 86 1010.8
20260510013051 61 0 0.0 0.0 0.00 0.00 0.00 84 1010.7
20260510011552 62 0 0.0 0.0 0.00 0.00 0.00 82 1010.5
20260510010054 63 0 0.0 0.0 0.00 0.00 0.00 80 1010.4
20260510004553 64 0 0.0 0.0 0.00 0.00 0.00 78 1010.2
20260510003101 66 0 0.0 0.0 0.00 0.00 0.00 76 1010.2
20260510001556 68 0 0.0 0.0 0.00 0.00 0.00 73 1010.2
20260510000057 69 0 0.0 0.0 0.00 0.00 0.00 67 1010.0
20260509234558 71 0 0.0 1.0 0.00 0.00 0.00 64 1009.7
20260509233103 72 0 0.0 1.0 0.00 0.00 0.00 61 1009.7
20260509231555 73 0 0.0 0.0 0.00 0.00 0.00 61 1009.6
20260509230059 74 0 0.0 2.0 0.00 0.00 0.00 57 1009.6
20260509224553 75 0 0.0 2.0 0.00 0.00 0.00 56 1009.5
20260509223057 75 0 0.0 5.0 0.00 0.00 0.00 55 1009.5